Location: C�mpuri de-Sus
(45.9500°N, 22.5500°E)
Time: 04:29:22
(UTC+00:00)

SMAP - Pass Details

Date: 24 October 2021
Orbit: 681 x 683 km, 98.1° (Epoch: 30 November)

Event Time Altitude Azimuth Distance (km) Brightness Sun altitude
Rises 16:21:16 0° 183° (S) 3,033 6.5 -9.8°
Reaches altitude 10° 16:23:36 10° 190° (S) 2,122 5.8 -10.2°
Maximum altitude 16:28:00 43° 261° (W) 963 4.5 -11.0°
Drops below altitude 10° 16:32:28 10° 334° (NNW) 2,138 5.9 -11.8°
Sets 16:34:50 0° 341° (NNW) 3,058 6.6 -12.2°
